Date String (YYYY-MM-DD hh:mm:ss) UTC,Instrument flags,absolute air pressure of the measurement (hPa),sample flow rate (lpm),inlet stack bypass flow (lpm),air temperature of the measurement (°C),ambient temperature measured by the external sensor (°C),aerosol sample conditioner tube jacket temperature (°C),OPC LED temperature (°C),internal box temperature (°C),relative humidity of the measurement (%),span deviation,mass concentration of particles derived from Lorenz-Mie calculation of OPC scattering (μg/m³),mass concentration of particles derived from Lorenz-Mie calculation of OPC scattering (μg/m³),mass concentration of particles derived from Lorenz-Mie calculation of OPC scattering (μg/m³)
DateTimeUTC,F1_M11,P_M11,Q1_M11,Q2_M11,T1_M11,T2_M11,T3_M11,T4_M11,T5_M11,U1_M11,ZSPAN_M11,X2_M11,X0_M11,X1_M11
2023-08-30 23:00:00,SystemResetWarning,0828.3,5.01,000.00,025.4,022.2,000.0,033.5,026.7,20.3,0000.0,0003.62,0007.84,0003.21
2023-08-30 23:01:00,SystemResetWarning,0828.2,5.00,000.00,025.3,022.7,000.0,033.5,026.8,20.3,0000.0,0003.51,0007.82,0003.13
2023-08-30 23:02:00,SystemResetWarning,0828.2,4.99,000.00,025.4,023.2,000.0,033.5,027.0,19.7,0000.0,0003.36,0007.89,0002.98
2023-08-30 23:03:00,SystemResetWarning,0828.2,5.00,000.00,025.5,023.7,000.0,033.6,027.2,19.3,0000.0,0003.23,0007.72,0002.79
2023-08-30 23:04:00,SystemResetWarning,0828.2,4.99,000.00,025.5,023.2,000.0,033.5,027.0,19.1,0000.0,0003.10,0007.62,0002.64
2023-08-30 23:05:00,SystemResetWarning,0828.2,5.01,000.00,025.4,022.3,000.0,033.5,026.7,19.1,0000.0,0002.97,0007.52,0002.50
2023-08-30 23:06:00,SystemResetWarning,0828.2,5.01,000.00,025.3,022.5,000.0,033.5,026.8,19.4,0000.0,0002.88,0007.41,0002.41
2023-08-30 23:07:00,SystemResetWarning,0828.1,5.00,000.00,025.3,022.9,000.0,033.5,026.9,19.7,0000.0,0002.82,0007.29,0002.37
2023-08-30 23:08:00,SystemResetWarning,0828.2,5.00,000.00,025.4,023.4,000.0,033.5,027.0,20.6,0000.0,0002.73,0006.82,0002.29
2023-08-30 23:09:00,SystemResetWarning,0828.2,5.00,000.00,025.5,023.8,000.0,033.6,027.2,19.8,0000.0,0002.61,0005.72,0002.18
2023-08-30 23:10:00,SystemResetWarning,0828.1,4.98,000.00,025.4,023.1,000.0,033.5,026.9,19.4,0000.0,0002.52,0006.10,0002.09
2023-08-30 23:11:00,SystemResetWarning,0828.1,5.00,000.00,025.3,022.3,000.0,033.5,026.6,19.5,0000.0,0002.43,0006.59,0002.02
2023-08-30 23:12:00,SystemResetWarning,0828.1,5.01,000.00,025.3,022.5,000.0,033.5,026.7,20.0,0000.0,0002.43,0006.35,0001.98
2023-08-30 23:13:00,SystemResetWarning,0828.2,5.01,000.00,025.3,022.9,000.0,033.5,026.8,19.8,0000.0,0002.45,0005.96,0001.97
2023-08-30 23:14:00,SystemResetWarning,0828.1,4.99,000.00,025.3,023.4,000.0,033.5,027.0,20.3,0000.0,0002.45,0004.92,0001.97
2023-08-30 23:15:00,SystemResetWarning,0828.1,5.00,000.00,025.4,023.8,000.0,033.5,027.2,21.1,0000.0,0002.47,0004.60,0001.99
2023-08-30 23:16:00,SystemResetWarning,0828.2,5.00,000.00,025.5,024.1,000.0,033.6,027.3,20.5,0000.0,0002.49,0004.60,0002.00
2023-08-30 23:17:00,SystemResetWarning,0828.1,4.99,000.00,025.5,023.3,000.0,033.5,026.9,21.3,0000.0,0002.46,0004.46,0002.00
2023-08-30 23:18:00,SystemResetWarning,0828.1,5.01,000.00,025.3,022.2,000.0,033.5,026.5,21.4,0000.0,0002.55,0004.80,0002.02
2023-08-30 23:19:00,SystemResetWarning,0828.1,5.02,000.00,025.2,022.0,000.0,033.4,026.5,21.6,0000.0,0002.55,0005.30,0002.03
2023-08-30 23:20:00,SystemResetWarning,0828.0,4.99,000.00,025.2,022.5,000.0,033.5,026.7,21.8,0000.0,0002.60,0005.61,0002.04
2023-08-30 23:21:00,SystemResetWarning,0828.1,5.00,000.00,025.3,022.9,000.0,033.5,026.8,20.9,0000.0,0002.60,0005.87,0002.05
2023-08-30 23:22:00,SystemResetWarning,0828.1,4.99,000.00,025.3,023.5,000.0,033.5,027.0,19.5,0000.0,0002.61,0005.01,0002.05
2023-08-30 23:23:00,SystemResetWarning,0828.1,5.00,000.00,025.4,023.9,000.0,033.5,027.2,19.7,0000.0,0002.62,0005.89,0002.06
2023-08-30 23:24:00,SystemResetWarning,0828.1,5.00,000.00,025.5,023.8,000.0,033.5,027.1,20.2,0000.0,0002.63,0005.94,0002.08
2023-08-30 23:25:00,SystemResetWarning,0828.1,5.00,000.00,025.4,022.7,000.0,033.5,026.7,20.8,0000.0,0002.68,0006.41,0002.09
2023-08-30 23:26:00,SystemResetWarning,0828.1,5.01,000.00,025.3,022.6,000.0,033.4,026.7,21.0,0000.0,0002.68,0006.42,0002.09
2023-08-30 23:27:00,SystemResetWarning,0828.0,5.01,000.00,025.3,023.0,000.0,033.5,026.9,21.0,0000.0,0002.73,0006.58,0002.09
2023-08-30 23:28:00,SystemResetWarning,0828.0,4.99,000.00,025.3,023.4,000.0,033.5,027.0,20.7,0000.0,0002.70,0006.51,0002.09
2023-08-30 23:29:00,SystemResetWarning,0828.0,5.00,000.00,025.4,023.8,000.0,033.5,027.2,21.5,0000.0,0002.63,0006.44,0002.07
2023-08-30 23:30:00,SystemResetWarning,0828.1,5.00,000.00,025.5,024.1,000.0,033.6,027.3,20.4,0000.0,0002.58,0006.08,0002.07
2023-08-30 23:31:00,SystemResetWarning,0828.0,4.99,000.00,025.5,023.1,000.0,033.5,026.9,20.6,0000.0,0002.55,0006.38,0002.08
2023-08-30 23:32:00,SystemResetWarning,0828.0,5.01,000.00,025.4,022.5,000.0,033.5,026.7,19.8,0000.0,0002.57,0006.14,0002.09
2023-08-30 23:33:00,SystemResetWarning,0828.0,5.01,000.00,025.4,022.8,000.0,033.5,026.9,19.8,0000.0,0002.54,0005.90,0002.08
2023-08-30 23:34:00,SystemResetWarning,0828.0,5.00,000.00,025.4,023.2,000.0,033.5,027.0,20.0,0000.0,0002.54,0005.07,0002.08
2023-08-30 23:35:00,SystemResetWarning,0828.1,4.99,000.00,025.4,023.7,000.0,033.6,027.2,19.8,0000.0,0002.50,0005.68,0002.08
2023-08-30 23:36:00,SystemResetWarning,0828.1,5.00,000.00,025.5,024.1,000.0,033.6,027.3,19.9,0000.0,0002.46,0005.69,0002.09
2023-08-30 23:37:00,SystemResetWarning,0828.1,5.00,000.00,025.5,023.7,000.0,033.6,027.1,19.4,0000.0,0002.46,0006.18,0002.09
2023-08-30 23:38:00,SystemResetWarning,0828.1,5.00,000.00,025.4,022.7,000.0,033.6,026.7,19.7,0000.0,0002.39,0006.00,0002.09
2023-08-30 23:39:00,SystemResetWarning,0828.1,5.02,000.00,025.4,022.8,000.0,033.5,026.8,20.6,0000.0,0002.42,0006.07,0002.10
2023-08-30 23:40:00,SystemResetWarning,0828.0,4.99,000.00,025.4,023.2,000.0,033.6,027.0,21.3,0000.0,0002.47,0006.09,0002.13
2023-08-30 23:41:00,SystemResetWarning,0828.1,4.99,000.00,025.5,023.6,000.0,033.6,027.2,20.8,0000.0,0002.48,0005.75,0002.13
2023-08-30 23:42:00,SystemResetWarning,0828.1,5.00,000.00,025.6,024.1,000.0,033.6,027.4,20.1,0000.0,0002.48,0005.29,0002.12
2023-08-30 23:43:00,SystemResetWarning,0828.1,5.00,000.00,025.5,023.4,000.0,033.6,027.1,20.1,0000.0,0002.46,0005.20,0002.11
2023-08-30 23:44:00,SystemResetWarning,0828.1,5.00,000.00,025.4,022.6,000.0,033.6,026.8,21.1,0000.0,0002.47,0005.25,0002.11
2023-08-30 23:45:00,SystemResetWarning,0828.1,5.02,000.00,025.4,022.8,000.0,033.5,026.9,20.9,0000.0,0002.51,0005.43,0002.12
2023-08-30 23:46:00,SystemResetWarning,0828.1,4.99,000.00,025.4,023.2,000.0,033.6,027.0,20.6,0000.0,0002.54,0004.68,0002.11
2023-08-30 23:47:00,SystemResetWarning,0828.1,4.99,000.00,025.5,023.6,000.0,033.6,027.2,20.7,0000.0,0002.53,0004.21,0002.08
2023-08-30 23:48:00,SystemResetWarning,0828.1,5.00,000.00,025.5,023.7,000.0,033.6,027.1,20.0,0000.0,0002.52,0003.70,0002.07
2023-08-30 23:49:00,SystemResetWarning,0828.0,4.99,000.00,025.4,022.5,000.0,033.6,026.8,20.6,0000.0,0002.53,0003.76,0002.06
2023-08-30 23:50:00,SystemResetWarning,0828.0,5.01,000.00,025.3,021.8,000.0,033.5,026.5,20.7,0000.0,0002.53,0004.00,0002.06
2023-08-30 23:51:00,SystemResetWarning,0827.9,5.01,000.00,025.3,022.1,000.0,033.5,026.6,21.0,0000.0,0002.48,0004.23,0002.04
2023-08-30 23:52:00,SystemResetWarning,0827.9,5.00,000.00,025.3,022.6,000.0,033.5,026.7,21.0,0000.0,0002.51,0004.50,0002.03
2023-08-30 23:53:00,SystemResetWarning,0828.0,5.00,000.00,025.3,023.1,000.0,033.5,026.9,21.0,0000.0,0002.50,0004.49,0002.03
2023-08-30 23:54:00,SystemResetWarning,0828.0,4.99,000.00,025.4,023.6,000.0,033.5,027.1,21.1,0000.0,0002.53,0004.54,0002.03
2023-08-30 23:55:00,SystemResetWarning,0828.0,5.00,000.00,025.5,024.1,000.0,033.6,027.3,20.7,0000.0,0002.57,0004.60,0002.03
2023-08-30 23:56:00,SystemResetWarning,0828.1,5.00,000.00,025.6,024.3,000.0,033.6,027.4,21.1,0000.0,0002.55,0004.48,0002.02
2023-08-30 23:57:00,SystemResetWarning,0828.0,4.99,000.00,025.5,023.4,000.0,033.6,027.0,21.6,0000.0,0002.51,0004.42,0002.02
2023-08-30 23:58:00,SystemResetWarning,0827.8,5.01,000.00,025.4,022.6,000.0,033.5,026.8,21.3,0000.0,0002.52,0004.42,0002.03
2023-08-30 23:59:00,SystemResetWarning,0827.8,5.01,000.00,025.4,022.8,000.0,033.5,026.9,20.8,0000.0,0002.52,0004.50,0002.03
